Regional Weather Roundup
Issued by NWS Mt. Holly, NJ

Home | Current Version | Previous Version | Text Only | Print | Product List | Glossary On
Versions: 1 2 3 4 5 6 7 8 9 10 11 12 13 14 15 16 17 18 19 20 21 22 23 24 25 26 27
000
ASUS41 KPHI 250510
RWRPHI

REGIONAL WEATHER ROUNDUP
NATIONAL WEATHER SERVICE MOUNT HOLLY NJ
100 AM EDT FRI APR 25 2014

NOTE:  "FAIR" INDICATES FEW OR NO CLOUDS BELOW 12,000 FEET WITH NO
SIGNIFICANT WEATHER AND/OR OBSTRUCTIONS TO VISIBILITY.

 * = STATION DOES NOT REPORT PRECIPITATION (E.G. RAIN, SNOW, ETC.)
        OR FOG.

NJZ015>026-250600-
SOUTHERN NEW JERSEY

CITY           SKY/WX    TMP DP  RH WIND       PRES   REMARKS
POMONA         CLEAR     46  18  32 N9        30.02S
RIO GRANDE*    CLEAR     46  34  61 CALM      30.04S
MILLVILLE      CLEAR     34  27  75 CALM      30.03S
WRIGHTSTOWN    CLEAR     45  16  31 N8        30.01S
MOUNT HOLLY    CLEAR     47  17  30 CALM      30.04R
TRENTON        CLEAR     48  14  25 N13       30.02F

$$
NJZ001>014-250600-
NORTHERN NEW JERSEY

CITY           SKY/WX    TMP DP  RH WIND       PRES   REMARKS
SUSSEX         CLEAR     47  17  30 N6        30.03F
ANDOVER*         N/A     42  23  46 CALM      30.04S
MORRISTOWN     CLEAR     50  14  23 CALM      30.03S
NEWARK         CLEAR     50  16  25 N10       30.03R
TETERBORO      CLEAR     49  17  28 NW6       30.02R
CALDWELL       CLEAR     47  17  30 VRB3      30.04S
SOMERVILLE     CLEAR     42  23  46 SW3       30.03R
ALLAIRE*       CLEAR     48  18  29 N8        30.03S
TOMS RIVER*    CLEAR     46  16  29 N5        30.03R

$$
PAZ043-044-047-054-055-060>062-066>071-250600-
EASTERN PENNSYLVANIA

CITY           SKY/WX    TMP DP  RH WIND       PRES   REMARKS
PHILADELPHIA   PTCLDY    52  12  20 N12       30.04S
NORTH PHILA    CLEAR     49  11  21 NW5       30.05R
BLUE BELL      CLEAR     46  18  31 CALM      30.03S
DOYLESTOWN     CLEAR     44  14  29 N8        30.02F
QUAKERTOWN*    CLEAR     39  21  48 N6        30.05S WCI  35
POTTSTOWN      CLEAR     45  18  34 CALM      30.05S
LANCASTER      PTCLDY    41  25  53 SE3       30.03S
COATESVILLE    PTCLDY    48   9  20 CALM      30.04S
READING        CLEAR     42  25  50 CALM      30.03S
ALLENTOWN      CLEAR     43  17  35 CALM      30.04S
MOUNT POCONO   CLEAR     38  16  40 N13       30.01F WCI  30
HAZLETON       CLEAR     43  10  26 N7        30.04F
WILKES BARRE   CLEAR     42  17  36 CALM      30.04S

$$
DEZALL-MDZ008-012-015-019-020-250600-
DELAWARE AND EASTERN MARYLAND

CITY           SKY/WX    TMP DP  RH WIND       PRES   REMARKS
WILMINGTON     CLEAR     49  21  33 NW5       30.04S
DOVER          CLEAR     44  27  51 W2        30.00S
GEORGETOWN     PTCLDY    44  30  57 CALM      30.04R
EASTON         MOCLDY    49  35  60 CALM      30.07F
PATUXENT       CLOUDY    42  33  70 CALM      30.03F
OCEAN CITY     MOCLDY    42  31  64 NW3       30.04S
WALLOPS ISLAND CLOUDY    47  36  65 CALM      30.04F
CAMBRIDGE      CLOUDY    45  34  65 CALM      30.03F
SALISBURY      MOCLDY    43  34  70 CALM      30.03F

$$
PAZ001-021-NYZ056-072-MDZ011-DCZ001-250600-
OTHER NEARBY LOCATIONS

CITY           SKY/WX    TMP DP  RH WIND       PRES   REMARKS
HARRISBURG     MOCLDY    45  31  58 E3        30.02S
STATE COLLEGE  PTCLDY    47   8  20 NE8       30.01S
WILLIAMSPORT   CLEAR     41  24  51 CALM      30.04R
BINGHAMTON     CLEAR     37  17  44 CALM      30.02S
NEW YORK CITY  CLEAR     49  17  28 MISG      30.05S
BALTIMORE      MOCLDY    45  30  55 CALM      30.03R
WASHINGTON DC  CLOUDY    55  32  41 CALM      30.03F

$$



USA.gov is the U.S. government's official web portal to all federal, state and local government web resources and services.